EZS137 LSGG-LFKJ

Flight info

Callsign EZS137
Flight time 1h 18m
Altitude 31000
Route MEDAM DCT VEVAR/N0452F350 DCT BARSO DCT KOLON DCT OMARD M623 VAREK
Aircraft A320/M-SDE3FGHIRWY/LB1

Departure

Time 2026-04-23 21:23
Airport Geneva International Airport (LSGG)

Arrival

Time 2026-04-23 22:42
Airport Ajaccio Napoléon Bonaparte airport (LFKJ)
Time Latitude Longitude Altitude Speed Heading
2026-04-23 20:17 46.23130 6.10701 1402 ft 0 kts 135°
2026-04-23 20:18 46.23130 6.10700 1402 ft 0 kts 135°
2026-04-23 20:22 46.23131 6.10700 1420 ft 0 kts 135°
2026-04-23 21:06 46.23133 6.10697 1409 ft 2 kts 136°
2026-04-23 21:06 46.23153 6.10676 1404 ft 4 kts 166°
2026-04-23 21:06 46.23177 6.10678 1403 ft 4 kts 214°
2026-04-23 21:06 46.23195 6.10702 1403 ft 3 kts 225°
2026-04-23 21:07 46.23197 6.10704 1401 ft 0 kts 225°
2026-04-23 21:11 46.23197 6.10705 1393 ft 0 kts 225°
2026-04-23 21:12 46.23197 6.10704 1393 ft 1 kts 225°
2026-04-23 21:13 46.23191 6.10675 1397 ft 3 kts 269°
2026-04-23 21:13 46.23209 6.10628 1400 ft 6 kts 308°
2026-04-23 21:13 46.23236 6.10589 1396 ft 5 kts 316°
2026-04-23 21:13 46.23263 6.10550 1401 ft 6 kts 315°
2026-04-23 21:14 46.23285 6.10508 1402 ft 5 kts 288°
2026-04-23 21:14 46.23267 6.10450 1398 ft 11 kts 230°
2026-04-23 21:14 46.23218 6.10380 1399 ft 9 kts 225°
2026-04-23 21:14 46.23168 6.10306 1393 ft 13 kts 227°
2026-04-23 21:15 46.23112 6.10214 1398 ft 11 kts 226°
2026-04-23 21:15 46.23060 6.10137 1397 ft 10 kts 226°
2026-04-23 21:15 46.23015 6.10070 1403 ft 9 kts 227°
2026-04-23 21:15 46.22977 6.10011 1400 ft 7 kts 225°
2026-04-23 21:16 46.22944 6.09964 1402 ft 6 kts 225°
2026-04-23 21:16 46.22916 6.09926 1404 ft 5 kts 224°
2026-04-23 21:16 46.22894 6.09893 1400 ft 4 kts 225°
2026-04-23 21:16 46.22877 6.09868 1400 ft 3 kts 224°
2026-04-23 21:17 46.22855 6.09835 1398 ft 11 kts 226°
2026-04-23 21:17 46.22793 6.09745 1400 ft 12 kts 225°
2026-04-23 21:17 46.22736 6.09662 1402 ft 11 kts 226°
2026-04-23 21:17 46.22659 6.09549 1400 ft 18 kts 226°
2026-04-23 21:18 46.22578 6.09422 1398 ft 16 kts 236°
2026-04-23 21:18 46.22551 6.09311 1404 ft 7 kts 265°
2026-04-23 21:18 46.22550 6.09261 1408 ft 9 kts 270°
2026-04-23 21:18 46.22550 6.09253 1413 ft 0 kts 270°
2026-04-23 21:21 46.22557 6.09206 1412 ft 5 kts 293°
2026-04-23 21:22 46.22595 6.09162 1417 ft 9 kts 347°
2026-04-23 21:22 46.22647 6.09195 1431 ft 9 kts 44°
2026-04-23 21:22 46.22658 6.09210 1427 ft 0 kts 44°
2026-04-23 21:22 46.22665 6.09220 1431 ft 11 kts 44°
2026-04-23 21:23 46.22918 6.09590 1425 ft 89 kts 45°
2026-04-23 21:23 46.23510 6.10448 1415 ft 149 kts 44°
2026-04-23 21:23 46.24267 6.11581 1943 ft 159 kts 45°
2026-04-23 21:23 46.25041 6.12765 2716 ft 163 kts 45°
2026-04-23 21:24 46.25870 6.13989 3249 ft 180 kts 45°
2026-04-23 21:24 46.26803 6.15355 3578 ft 202 kts 45°
2026-04-23 21:24 46.27843 6.16874 3943 ft 224 kts 45°
2026-04-23 21:24 46.28995 6.18559 4414 ft 248 kts 45°
2026-04-23 21:25 46.30235 6.20378 5237 ft 258 kts 45°
2026-04-23 21:25 46.31514 6.22255 6135 ft 264 kts 45°
2026-04-23 21:25 46.32812 6.24160 7090 ft 268 kts 45°
2026-04-23 21:25 46.34110 6.26068 8015 ft 271 kts 46°
2026-04-23 21:26 46.35415 6.28066 8930 ft 275 kts 54°
2026-04-23 21:26 46.36139 6.30611 9821 ft 278 kts 84°
2026-04-23 21:26 46.35948 6.33394 10689 ft 282 kts 108°
2026-04-23 21:26 46.34970 6.35859 11560 ft 287 kts 131°
2026-04-23 21:27 46.33337 6.37579 12246 ft 303 kts 154°
2026-04-23 21:27 46.31178 6.38086 12545 ft 332 kts 184°
2026-04-23 21:27 46.28874 6.37130 12787 ft 359 kts 200°
2026-04-23 21:27 46.26546 6.35639 13301 ft 372 kts 204°
2026-04-23 21:28 46.24205 6.33956 14042 ft 377 kts 205°
2026-04-23 21:28 46.21849 6.32249 14644 ft 381 kts 201°
2026-04-23 21:28 46.19341 6.31039 15313 ft 381 kts 190°
2026-04-23 21:28 46.16702 6.30596 16034 ft 381 kts 180°
2026-04-23 21:29 46.14048 6.30439 16742 ft 383 kts 180°
2026-04-23 21:29 46.11378 6.30303 17421 ft 386 kts 180°
2026-04-23 21:29 46.08720 6.30172 18086 ft 389 kts 180°
2026-04-23 21:29 46.06009 6.30032 18715 ft 392 kts 180°
2026-04-23 21:30 46.03277 6.29881 19282 ft 394 kts 180°
2026-04-23 21:30 46.00521 6.29722 19824 ft 398 kts 180°
2026-04-23 21:30 45.97745 6.29554 20391 ft 400 kts 180°
2026-04-23 21:30 45.94954 6.29381 20966 ft 403 kts 180°
2026-04-23 21:31 45.92150 6.29448 21462 ft 404 kts 172°
2026-04-23 21:31 45.89392 6.30238 21940 ft 405 kts 161°
2026-04-23 21:31 45.86782 6.31744 22456 ft 405 kts 151°
2026-04-23 21:31 45.84386 6.33895 22887 ft 408 kts 142°
2026-04-23 21:32 45.82102 6.36332 23336 ft 412 kts 141°
2026-04-23 21:32 45.79786 6.38800 23834 ft 415 kts 142°
2026-04-23 21:32 45.77464 6.41270 24252 ft 417 kts 142°
2026-04-23 21:32 45.75130 6.43745 24689 ft 418 kts 142°
2026-04-23 21:33 45.72782 6.46233 25115 ft 420 kts 142°
2026-04-23 21:33 45.70432 6.48720 25538 ft 421 kts 141°
2026-04-23 21:33 45.68070 6.51212 25952 ft 422 kts 142°
2026-04-23 21:33 45.65729 6.53678 26362 ft 424 kts 141°
2026-04-23 21:34 45.63348 6.56187 26767 ft 426 kts 142°
2026-04-23 21:34 45.60960 6.58701 27159 ft 427 kts 141°
2026-04-23 21:34 45.58562 6.61223 27532 ft 429 kts 142°
2026-04-23 21:34 45.56150 6.63754 27921 ft 431 kts 142°
2026-04-23 21:35 45.53725 6.66297 28250 ft 433 kts 141°
2026-04-23 21:35 45.51290 6.68849 28570 ft 436 kts 141°
2026-04-23 21:35 45.48844 6.71412 28913 ft 437 kts 141°
2026-04-23 21:35 45.46385 6.73985 29270 ft 439 kts 141°
2026-04-23 21:36 45.41411 6.79087 30065 ft 440 kts 142°
2026-04-23 21:36 45.38917 6.81582 30513 ft 438 kts 142°
2026-04-23 21:36 45.36421 6.84062 30943 ft 437 kts 143°
2026-04-23 21:37 45.33930 6.86526 31337 ft 436 kts 143°
2026-04-23 21:37 45.31445 6.88987 31684 ft 435 kts 142°
2026-04-23 21:37 45.28925 6.91370 32058 ft 436 kts 147°
2026-04-23 21:37 45.26179 6.93230 32427 ft 439 kts 156°
2026-04-23 21:38 45.23231 6.94424 32773 ft 443 kts 166°
2026-04-23 21:38 45.20172 6.94985 33132 ft 445 kts 170°
2026-04-23 21:38 45.17091 6.95451 33493 ft 445 kts 170°
2026-04-23 21:38 45.14014 6.95929 33844 ft 445 kts 170°
2026-04-23 21:39 45.10931 6.96416 34199 ft 445 kts 170°
2026-04-23 21:39 45.07854 6.96903 34505 ft 445 kts 170°
2026-04-23 21:39 45.04769 6.97388 34781 ft 446 kts 170°
2026-04-23 21:39 45.01684 6.97870 35055 ft 447 kts 171°
2026-04-23 21:40 44.98588 6.98356 35185 ft 448 kts 171°
2026-04-23 21:40 44.92364 6.99321 35216 ft 451 kts 171°
2026-04-23 21:41 44.86123 7.00287 35212 ft 451 kts 171°
2026-04-23 21:41 44.79854 7.01014 35223 ft 454 kts 179°
2026-04-23 21:42 44.73545 7.00033 35223 ft 458 kts 186°
2026-04-23 21:42 44.67253 6.98848 35214 ft 458 kts 185°
2026-04-23 21:43 44.60935 6.97663 35213 ft 458 kts 185°
2026-04-23 21:43 44.54611 6.96492 35204 ft 458 kts 185°
2026-04-23 21:44 44.48288 6.95313 35202 ft 458 kts 185°
2026-04-23 21:44 44.41963 6.94137 35200 ft 458 kts 185°
2026-04-23 21:45 44.35630 6.92961 35197 ft 459 kts 186°
2026-04-23 21:45 44.29277 6.91787 35192 ft 461 kts 186°
2026-04-23 21:46 44.22912 6.90613 35192 ft 461 kts 186°
2026-04-23 21:46 44.17617 6.89638 35191 ft 463 kts 186°
2026-04-23 21:47 44.11216 6.89495 35191 ft 461 kts 172°
2026-04-23 21:47 44.04817 6.90466 35190 ft 462 kts 172°
2026-04-23 21:48 43.98409 6.91432 35189 ft 464 kts 173°
2026-04-23 21:48 43.92011 6.92387 35193 ft 466 kts 173°
2026-04-23 21:49 43.85564 6.93344 35196 ft 467 kts 173°
2026-04-23 21:49 43.79095 6.94302 35198 ft 468 kts 173°
2026-04-23 21:50 43.72742 6.96230 35195 ft 469 kts 158°
2026-04-23 21:50 43.67094 7.00637 35198 ft 467 kts 141°
2026-04-23 21:51 43.61921 7.06076 35197 ft 468 kts 141°
2026-04-23 21:51 43.56707 7.11507 35189 ft 471 kts 141°
2026-04-23 21:52 43.51445 7.16958 35191 ft 475 kts 142°
2026-04-23 21:52 43.46148 7.22439 35198 ft 477 kts 141°
2026-04-23 21:53 43.40860 7.27909 35207 ft 479 kts 141°
2026-04-23 21:53 43.35522 7.33415 35204 ft 481 kts 142°
2026-04-23 21:54 43.30141 7.38958 35205 ft 484 kts 142°
2026-04-23 21:54 43.24740 7.44508 35210 ft 486 kts 142°
2026-04-23 21:55 43.19321 7.50075 35215 ft 487 kts 142°
2026-04-23 21:55 43.13880 7.55635 35208 ft 489 kts 142°
2026-04-23 21:56 43.07996 7.60323 35232 ft 492 kts 158°
2026-04-23 21:56 43.01578 7.63530 35263 ft 490 kts 160°
2026-04-23 21:57 42.95160 7.66724 35246 ft 490 kts 160°
2026-04-23 21:57 42.88746 7.69909 35220 ft 491 kts 160°
2026-04-23 21:58 42.82351 7.73069 35212 ft 493 kts 160°
2026-04-23 21:58 42.75884 7.76258 34289 ft 498 kts 160°
2026-04-23 21:58 42.72592 7.77878 33000 ft 508 kts 161°
2026-04-23 21:59 42.69235 7.79525 31841 ft 515 kts 160°
2026-04-23 21:59 42.65855 7.81181 30862 ft 517 kts 160°
2026-04-23 21:59 42.62471 7.82839 29852 ft 517 kts 160°
2026-04-23 22:00 42.55721 7.86157 27662 ft 514 kts 159°
2026-04-23 22:00 42.52366 7.87800 26628 ft 511 kts 159°
2026-04-23 22:00 42.49038 7.89423 25631 ft 506 kts 159°
2026-04-23 22:00 42.45734 7.91031 24660 ft 501 kts 159°
2026-04-23 22:01 42.42469 7.92616 23710 ft 496 kts 158°
2026-04-23 22:01 42.39244 7.94181 22758 ft 488 kts 158°
2026-04-23 22:01 42.36072 7.95721 21901 ft 480 kts 158°
2026-04-23 22:01 42.33024 7.97295 21101 ft 470 kts 153°
2026-04-23 22:02 42.30232 7.99502 20213 ft 461 kts 141°
2026-04-23 22:02 42.27829 8.02294 19381 ft 453 kts 135°
2026-04-23 22:02 42.25522 8.05152 18570 ft 448 kts 134°
2026-04-23 22:02 42.23234 8.07969 17736 ft 442 kts 134°
2026-04-23 22:03 42.20973 8.10738 16915 ft 437 kts 134°
2026-04-23 22:03 42.18727 8.13483 16157 ft 431 kts 134°
2026-04-23 22:03 42.16554 8.16131 16097 ft 409 kts 135°
2026-04-23 22:03 42.14492 8.18637 15994 ft 390 kts 134°
2026-04-23 22:04 42.12512 8.21041 15862 ft 375 kts 135°
2026-04-23 22:04 42.10618 8.23346 15738 ft 360 kts 135°
2026-04-23 22:04 42.08793 8.25569 15611 ft 347 kts 135°
2026-04-23 22:04 42.07037 8.27710 15483 ft 335 kts 134°
2026-04-23 22:05 42.05365 8.29744 15367 ft 313 kts 134°
2026-04-23 22:05 42.03800 8.31638 15243 ft 293 kts 134°
2026-04-23 22:05 42.02326 8.33421 15054 ft 278 kts 134°
2026-04-23 22:05 42.00923 8.35123 14668 ft 272 kts 134°
2026-04-23 22:06 41.99524 8.36824 14209 ft 270 kts 134°
2026-04-23 22:06 41.98130 8.38517 13729 ft 269 kts 134°
2026-04-23 22:06 41.96745 8.40195 13220 ft 267 kts 134°
2026-04-23 22:06 41.95429 8.41929 12700 ft 262 kts 124°
2026-04-23 22:07 41.94479 8.43978 12180 ft 256 kts 110°
2026-04-23 22:07 41.93870 8.46211 11653 ft 254 kts 105°
2026-04-23 22:07 41.93286 8.48443 11117 ft 254 kts 106°
2026-04-23 22:07 41.92688 8.50698 10451 ft 258 kts 106°
2026-04-23 22:08 41.92078 8.52990 9766 ft 262 kts 107°
2026-04-23 22:08 41.91460 8.55297 9171 ft 260 kts 107°
2026-04-23 22:08 41.90852 8.57566 8642 ft 256 kts 107°
2026-04-23 22:08 41.90251 8.59802 8115 ft 252 kts 107°
2026-04-23 22:09 41.89595 8.61970 7586 ft 250 kts 119°
2026-04-23 22:09 41.88376 8.63619 7000 ft 253 kts 147°
2026-04-23 22:09 41.86690 8.64324 6380 ft 259 kts 176°
2026-04-23 22:09 41.84966 8.63894 6185 ft 249 kts 202°
2026-04-23 22:10 41.83584 8.62557 6171 ft 251 kts 229°
2026-04-23 22:10 41.82759 8.60513 6164 ft 252 kts 257°
2026-04-23 22:10 41.82713 8.58193 6173 ft 249 kts 285°
2026-04-23 22:10 41.83426 8.56119 6174 ft 245 kts 311°
2026-04-23 22:11 41.84595 8.54465 6174 ft 245 kts 319°
2026-04-23 22:11 41.85825 8.52889 6174 ft 245 kts 320°
2026-04-23 22:11 41.87073 8.51327 6174 ft 245 kts 320°
2026-04-23 22:11 41.88318 8.49773 6159 ft 245 kts 320°
2026-04-23 22:12 41.89568 8.48205 6175 ft 247 kts 320°
2026-04-23 22:12 41.90921 8.46836 6172 ft 242 kts 339°
2026-04-23 22:12 41.92525 8.46366 6175 ft 236 kts
2026-04-23 22:12 41.94094 8.46876 6175 ft 231 kts 30°
2026-04-23 22:13 41.95320 8.48215 6175 ft 228 kts 54°
2026-04-23 22:13 41.95996 8.50119 6171 ft 227 kts 78°
2026-04-23 22:13 41.96003 8.52234 6170 ft 229 kts 102°
2026-04-23 22:13 41.95334 8.54175 6169 ft 233 kts 126°
2026-04-23 22:14 41.94236 8.55749 6170 ft 235 kts 133°
2026-04-23 22:14 41.93057 8.57267 6169 ft 235 kts 134°
2026-04-23 22:14 41.91860 8.58764 6169 ft 235 kts 134°
2026-04-23 22:14 41.90662 8.60258 6168 ft 235 kts 134°
2026-04-23 22:15 41.89431 8.61692 6163 ft 237 kts 145°
2026-04-23 22:15 41.87860 8.62375 6167 ft 243 kts 175°
2026-04-23 22:15 41.86210 8.61878 6171 ft 249 kts 208°
2026-04-23 22:15 41.84974 8.60269 6173 ft 251 kts 242°
2026-04-23 22:16 41.84552 8.58027 6172 ft 250 kts 275°
2026-04-23 22:16 41.85052 8.55870 6173 ft 245 kts 307°
2026-04-23 22:16 41.86203 8.54212 6174 ft 244 kts 320°
2026-04-23 22:16 41.87436 8.52646 6174 ft 244 kts 320°
2026-04-23 22:17 41.88672 8.51081 6169 ft 244 kts 320°
2026-04-23 22:17 41.89910 8.49508 6171 ft 245 kts 319°
2026-04-23 22:17 41.91274 8.48185 6169 ft 240 kts 342°
2026-04-23 22:17 41.92890 8.47909 6173 ft 234 kts 12°
2026-04-23 22:18 41.94359 8.48728 6173 ft 229 kts 40°
2026-04-23 22:18 41.95332 8.50382 6170 ft 227 kts 68°
2026-04-23 22:18 41.95590 8.52459 6169 ft 228 kts 95°
2026-04-23 22:18 41.95068 8.54465 6168 ft 232 kts 123°
2026-04-23 22:19 41.93961 8.56055 6173 ft 234 kts 134°
2026-04-23 22:19 41.92790 8.57546 6169 ft 235 kts 134°
2026-04-23 22:19 41.91599 8.59046 6168 ft 235 kts 134°
2026-04-23 22:19 41.90407 8.60547 6167 ft 235 kts 134°
2026-04-23 22:20 41.89128 8.61909 6162 ft 238 kts 151°
2026-04-23 22:20 41.87506 8.62367 6167 ft 244 kts 182°
2026-04-23 22:20 41.85903 8.61624 6169 ft 249 kts 215°
2026-04-23 22:20 41.84811 8.59836 6170 ft 251 kts 248°
2026-04-23 22:21 41.84581 8.57553 6170 ft 249 kts 281°
2026-04-23 22:21 41.85261 8.55464 6165 ft 244 kts 313°
2026-04-23 22:21 41.86461 8.53867 6172 ft 244 kts 320°
2026-04-23 22:21 41.87696 8.52304 6163 ft 244 kts 320°
2026-04-23 22:22 41.88933 8.50741 6168 ft 245 kts 320°
2026-04-23 22:22 41.90173 8.49174 6171 ft 245 kts 321°
2026-04-23 22:22 41.91610 8.48031 6171 ft 239 kts 348°
2026-04-23 22:22 41.93230 8.47994 6171 ft 232 kts 18°
2026-04-23 22:23 41.94617 8.49021 6171 ft 228 kts 46°
2026-04-23 22:23 41.95447 8.50802 6168 ft 227 kts 73°
2026-04-23 22:23 41.95573 8.52913 5657 ft 238 kts 101°
2026-04-23 22:23 41.94824 8.54926 5006 ft 250 kts 131°
2026-04-23 22:24 41.93544 8.56577 4318 ft 259 kts 136°
2026-04-23 22:24 41.92261 8.58184 4035 ft 242 kts 136°
2026-04-23 22:24 41.91062 8.59693 3985 ft 234 kts 136°
2026-04-23 22:24 41.89874 8.61188 3985 ft 234 kts 138°
2026-04-23 22:25 41.88452 8.62235 3985 ft 235 kts 167°
2026-04-23 22:25 41.86836 8.62192 3987 ft 236 kts 197°
2026-04-23 22:25 41.85446 8.61056 3986 ft 236 kts 228°
2026-04-23 22:25 41.84672 8.59151 3988 ft 235 kts 259°
2026-04-23 22:26 41.84709 8.56991 3984 ft 233 kts 288°
2026-04-23 22:26 41.85523 8.55149 3991 ft 231 kts 315°
2026-04-23 22:26 41.86677 8.53643 3989 ft 231 kts 318°
2026-04-23 22:26 41.87832 8.52181 3988 ft 231 kts 318°
2026-04-23 22:27 41.89004 8.50704 3988 ft 232 kts 317°
2026-04-23 22:27 41.90181 8.49218 3988 ft 232 kts 318°
2026-04-23 22:27 41.91546 8.48108 3987 ft 231 kts 345°
2026-04-23 22:27 41.93133 8.48025 3983 ft 230 kts 14°
2026-04-23 22:28 41.94542 8.48995 3985 ft 230 kts 43°
2026-04-23 22:28 41.95411 8.50769 3985 ft 230 kts 72°
2026-04-23 22:28 41.95531 8.52893 3983 ft 231 kts 101°
2026-04-23 22:28 41.94858 8.54836 3987 ft 232 kts 130°
2026-04-23 22:29 41.93706 8.56379 3987 ft 234 kts 136°
2026-04-23 22:29 41.92523 8.57876 3986 ft 234 kts 136°
2026-04-23 22:29 41.91350 8.59351 3985 ft 234 kts 136°
2026-04-23 22:29 41.90164 8.60848 3985 ft 234 kts 136°
2026-04-23 22:30 41.88832 8.62086 3979 ft 235 kts 160°
2026-04-23 22:30 41.87223 8.62307 3987 ft 236 kts 190°
2026-04-23 22:30 41.85738 8.61411 3987 ft 237 kts 221°
2026-04-23 22:30 41.84792 8.59642 3986 ft 235 kts 252°
2026-04-23 22:31 41.84632 8.57494 3987 ft 233 kts 282°
2026-04-23 22:31 41.85278 8.55532 3987 ft 231 kts 311°
2026-04-23 22:31 41.86410 8.53996 3989 ft 231 kts 317°
2026-04-23 22:31 41.87578 8.52513 3988 ft 231 kts 318°
2026-04-23 22:32 41.88737 8.51052 3984 ft 232 kts 317°
2026-04-23 22:32 41.89916 8.49564 3985 ft 233 kts 317°
2026-04-23 22:32 41.91212 8.48292 3984 ft 231 kts 339°
2026-04-23 22:32 41.92776 8.47962 3987 ft 225 kts
2026-04-23 22:33 41.94178 8.48637 3983 ft 208 kts 35°
2026-04-23 22:33 41.95135 8.49980 4000 ft 192 kts 60°
2026-04-23 22:33 41.95558 8.51651 4001 ft 189 kts 83°
2026-04-23 22:33 41.95436 8.53398 3988 ft 189 kts 107°
2026-04-23 22:34 41.94795 8.54936 3983 ft 191 kts 130°
2026-04-23 22:34 41.93871 8.56218 3986 ft 191 kts 135°
2026-04-23 22:34 41.92918 8.57426 3984 ft 191 kts 136°
2026-04-23 22:34 41.91943 8.58645 3985 ft 191 kts 136°
2026-04-23 22:35 41.90969 8.59861 3984 ft 191 kts 136°
2026-04-23 22:35 41.90025 8.61112 3983 ft 191 kts 127°
2026-04-23 22:35 41.89620 8.62767 3996 ft 189 kts 86°
2026-04-23 22:35 41.89893 8.64440 3934 ft 178 kts 74°
2026-04-23 22:36 41.90152 8.66029 3718 ft 174 kts 85°
2026-04-23 22:36 41.90143 8.67671 3414 ft 177 kts 92°
2026-04-23 22:36 41.90065 8.69321 3149 ft 177 kts 94°
2026-04-23 22:36 41.89995 8.70411 2970 ft 177 kts 95°
2026-04-23 22:37 41.89876 8.72060 2725 ft 176 kts 91°
2026-04-23 22:37 41.90159 8.73602 2576 ft 169 kts 57°
2026-04-23 22:37 41.90953 8.74730 2367 ft 168 kts 40°
2026-04-23 22:37 41.91855 8.75749 2148 ft 178 kts 38°
2026-04-23 22:38 41.92928 8.76734 2066 ft 193 kts 25°
2026-04-23 22:38 41.94175 8.77461 1861 ft 194 kts 21°
2026-04-23 22:38 41.95395 8.78157 1611 ft 187 kts 22°
2026-04-23 22:38 41.96572 8.78828 1349 ft 180 kts 23°
2026-04-23 22:39 41.97671 8.79563 1338 ft 175 kts 36°
2026-04-23 22:39 41.98393 8.80840 1343 ft 174 kts 75°
2026-04-23 22:39 41.98319 8.82304 1240 ft 149 kts 124°
2026-04-23 22:39 41.97507 8.82898 1122 ft 135 kts 185°
2026-04-23 22:40 41.96598 8.82647 883 ft 133 kts 197°
2026-04-23 22:40 41.95731 8.82285 620 ft 129 kts 202°
2026-04-23 22:40 41.94127 8.81329 299 ft 125 kts 206°
2026-04-23 22:41 41.93348 8.80841 114 ft 123 kts 206°
2026-04-23 22:41 41.92604 8.80374 27 ft 97 kts 203°
2026-04-23 22:41 41.92197 8.80125 26 ft 52 kts 205°
2026-04-23 22:41 41.91857 8.79915 28 ft 55 kts 204°
2026-04-23 22:42 41.91527 8.79709 22 ft 48 kts 205°
2026-04-23 22:42 41.91307 8.79572 23 ft 21 kts 216°
2026-04-23 22:42 41.91261 8.79454 23 ft 11 kts 277°
2026-04-23 22:42 41.91317 8.79382 23 ft 11 kts 333°
2026-04-23 22:43 41.91327 8.79375 23 ft 0 kts 333°
2026-04-23 22:44 41.91328 8.79375 23 ft 0 kts 333°
2026-04-23 22:44 41.91333 8.79371 23 ft 6 kts 333°
2026-04-23 22:44 41.91399 8.79336 23 ft 11 kts 349°
2026-04-23 22:45 41.91471 8.79342 23 ft 10 kts 15°
2026-04-23 22:45 41.91535 8.79378 24 ft 10 kts 25°
2026-04-23 22:45 41.91600 8.79420 22 ft 11 kts 25°
2026-04-23 22:45 41.91669 8.79463 21 ft 10 kts 24°
2026-04-23 22:46 41.91690 8.79476 23 ft 0 kts 23°
2026-04-23 22:46 41.91701 8.79482 22 ft 5 kts 23°
2026-04-23 22:46 41.91726 8.79497 24 ft 3 kts 25°
2026-04-23 22:46 41.91734 8.79502 22 ft 0 kts 26°
2026-04-23 22:47 41.91764 8.79522 25 ft 16 kts 24°
2026-04-23 22:47 41.91869 8.79587 24 ft 16 kts 25°
2026-04-23 22:47 41.91964 8.79648 29 ft 14 kts 25°
2026-04-23 22:47 41.92033 8.79681 26 ft 5 kts 336°
2026-04-23 22:48 41.92044 8.79666 30 ft 3 kts 312°
2026-04-23 22:48 41.92053 8.79643 26 ft 3 kts 293°
2026-04-23 22:48 41.92066 8.79628 27 ft 2 kts 342°
2026-04-23 22:48 41.92068 8.79628 27 ft 0 kts 343°